Location: Newark
(13.6797°N, 8.5297°E)
Time: 08:10:37
(UTC+00:00)

Explorer 11/Cluster Stage 4 - All Passes

Search period start: 29 January 2020 00:00
Search period end: 08 February 2020 00:00
Orbit: 467 x 1259 km, 28.8° (Epoch: 28 January)

Date Brightness Start Highest point End Pass type
(mag) Time Alt. Az. Time Alt. Az. Time Alt. Az.
29 Jan - 07:26:53 10° SSW 07:31:37 24° SE 07:37:06 10° E daylight
29 Jan - 09:13:34 10° WSW 09:20:17 85° SSE 09:28:18 10° ENE daylight
29 Jan - 11:02:58 10° W 11:10:03 42° NNW 11:17:46 10° NE daylight
29 Jan - 12:53:57 10° WNW 13:00:39 27° N 13:07:20 10° NE daylight
29 Jan - 14:44:36 10° NW 14:51:29 29° N 14:57:50 10° ENE daylight
29 Jan - 16:34:13 10° NW 16:41:46 50° NNE 16:48:06 10° E daylight
29 Jan - 18:24:03 10° WNW 18:30:57 57° SSW 18:36:29 10° SE visible
29 Jan - 20:17:27 10° SW 20:19:05 11° SW 20:20:38 10° SSW visible
30 Jan - 07:15:56 10° SSW 07:20:46 27° SE 07:26:30 10° E daylight
30 Jan - 09:02:58 10° WSW 09:09:27 84° NNW 09:17:20 10° ENE daylight
30 Jan - 10:52:31 10° W 10:59:18 38° NNW 11:06:48 10° NE daylight
30 Jan - 12:43:23 10° WNW 12:49:58 27° N 12:56:38 10° NE daylight
30 Jan - 14:33:43 10° NW 14:40:48 31° N 14:47:24 10° ENE daylight
30 Jan - 16:23:12 10° NW 16:31:01 58° NNE 16:37:38 10° E daylight
30 Jan - 18:13:11 10° WNW 18:20:08 48° SSW 18:25:47 10° SE visible
31 Jan - 07:05:05 10° SSW 07:09:57 32° SE 07:15:51 10° E daylight
31 Jan - 08:52:24 10° WSW 08:58:40 73° NNW 09:06:21 10° ENE daylight
31 Jan - 10:42:06 10° WNW 10:48:35 34° NNW 10:55:50 10° NE daylight
31 Jan - 12:32:49 10° NW 12:39:18 26° N 12:45:56 10° NE daylight
31 Jan - 14:22:48 10° NW 14:30:05 33° NNE 14:36:58 10° ENE daylight
31 Jan - 16:12:11 10° WNW 16:20:14 66° NNE 16:27:07 10° ESE daylight
31 Jan - 18:02:23 10° W 18:09:18 41° SSW 18:15:01 10° SE visible
01 Feb - 06:54:18 10° SSW 06:59:09 37° SE 07:05:08 10° E daylight
01 Feb - 08:41:55 10° WSW 08:47:55 63° NNW 08:55:20 10° ENE daylight
01 Feb - 10:31:43 10° WNW 10:37:54 31° N 10:44:51 10° NE daylight
01 Feb - 12:22:14 10° NW 12:28:37 26° N 12:35:16 10° NE daylight
01 Feb - 14:11:55 10° NW 14:19:21 36° NNE 14:26:29 10° E daylight
01 Feb - 16:01:13 10° WNW 16:09:24 75° NNE 16:16:32 10° ESE daylight
01 Feb - 17:51:38 10° W 17:58:26 36° SW 18:04:11 10° SSE visible
02 Feb - 06:43:35 10° SW 06:48:23 44° SSE 06:54:22 10° ENE daylight
02 Feb - 08:31:29 10° W 08:37:13 54° NNW 08:44:18 10° NE daylight
02 Feb - 10:21:22 10° WNW 10:27:14 29° N 10:33:53 10° NE daylight
02 Feb - 12:11:38 10° NW 12:17:57 26° N 12:24:36 10° ENE daylight
02 Feb - 14:01:01 10° NW 14:08:35 39° NNE 14:15:58 10° E daylight
02 Feb - 15:50:15 10° WNW 15:58:33 86° NNE 16:05:54 10° ESE daylight
02 Feb - 17:40:56 10° W 17:47:33 31° SW 17:53:16 10° SSE visible
03 Feb - 06:32:56 10° SW 06:37:39 53° SSE 06:43:34 10° ENE daylight
03 Feb - 08:21:06 10° W 08:26:32 46° NNW 08:33:16 10° NE daylight
03 Feb - 10:11:03 10° WNW 10:16:36 26° N 10:22:55 10° NE daylight
03 Feb - 12:01:01 10° NW 12:07:17 27° N 12:13:57 10° ENE daylight
03 Feb - 13:50:08 10° NW 13:57:48 43° NNE 14:05:24 10° E daylight
03 Feb - 15:39:20 10° WNW 15:47:40 84° SSW 15:55:11 10° ESE daylight
03 Feb - 17:30:20 10° W 17:36:40 27° SW 17:42:17 10° SSE daylight
04 Feb - 04:38:24 10° SSE 04:39:02 10° SE 04:39:41 10° SE visible
04 Feb - 06:22:21 10° SW 06:26:56 65° SSE 06:32:44 10° ENE daylight
04 Feb - 08:10:48 10° W 08:15:55 39° NNW 08:22:12 10° NE daylight
04 Feb - 10:00:45 10° WNW 10:06:00 24° N 10:11:59 10° NE daylight
04 Feb - 11:50:24 10° NW 11:56:36 27° N 12:03:18 10° ENE daylight
04 Feb - 13:39:15 10° NW 13:47:00 47° NNE 13:54:47 10° E daylight
04 Feb - 15:28:28 10° WNW 15:36:45 74° SSW 15:44:24 10° SE daylight
04 Feb - 17:19:49 10° W 17:25:47 23° SW 17:31:11 10° SSE daylight
05 Feb - 04:26:29 10° S 04:28:20 13° SE 04:30:20 10° ESE visible
05 Feb - 06:11:50 10° WSW 06:16:16 80° SSE 06:21:53 10° ENE daylight
05 Feb - 08:00:32 10° W 08:05:19 33° NNW 08:11:10 10° NE daylight
05 Feb - 09:50:27 10° NW 09:55:25 23° N 10:01:04 10° NE daylight
05 Feb - 11:39:46 10° NW 11:45:55 28° NNE 11:52:39 10° ENE daylight
05 Feb - 13:28:25 10° NW 13:36:09 53° NNE 13:44:08 10° E daylight
05 Feb - 15:17:38 10° WNW 15:25:49 65° SSW 15:33:34 10° SE daylight
05 Feb - 17:09:25 10° WSW 17:14:53 20° SW 17:19:58 10° S daylight
06 Feb - 04:15:14 10° S 04:17:40 16° SE 04:20:18 10° ESE visible
06 Feb - 06:01:21 10° WSW 06:05:38 83° NNW 06:11:01 10° ENE daylight
06 Feb - 07:50:19 10° WNW 07:54:45 28° NNW 08:00:07 10° NE daylight
06 Feb - 09:40:10 10° NW 09:44:50 21° N 09:50:11 10° NE daylight
06 Feb - 11:29:07 10° NW 11:35:14 29° NNE 11:42:00 10° ENE daylight
06 Feb - 13:17:35 10° NW 13:25:18 59° NNE 13:33:26 10° ESE daylight
06 Feb - 15:06:52 10° WNW 15:14:53 56° SSW 15:22:39 10° SE daylight
06 Feb - 16:59:11 10° WSW 17:04:01 17° SW 17:08:36 10° S daylight
07 Feb - 04:04:13 10° SSW 04:07:00 19° SE 04:10:04 10° E visible
07 Feb - 05:50:56 10° WSW 05:55:03 66° NNW 06:00:09 10° ENE daylight
07 Feb - 07:40:09 10° WNW 07:44:13 24° N 07:49:04 10° NE daylight
07 Feb - 09:29:52 10° NW 09:34:17 20° N 09:39:19 10° NE daylight
07 Feb - 11:18:28 10° NW 11:24:31 30° NNE 11:31:21 10° ENE daylight
07 Feb - 13:06:47 10° WNW 13:14:26 66° NNE 13:22:40 10° ESE daylight
07 Feb - 14:56:09 10° WNW 15:03:56 49° SSW 15:11:39 10° SE daylight
07 Feb - 16:49:11 10° WSW 16:53:10 14° SW 16:57:02 10° S daylight
